Location: Elsmere
(42.6217°N, 73.8182°W)
Time: 07:50:02
(UTC+00:00)

Daily predictions for brighter satellites

Satellite Brightness Start Highest point End
(mag) Time Altitude Azimuth Time Altitude Azimuth Time Altitude Azimuth
NOAA 6 4.4 21:43:44 10° SE 21:48:33 42° ENE 21:53:22 10° N
NOAA 12 4.1 21:43:56 10° SSE 21:49:13 66° ENE 21:54:30 10° N
Cosmos 1743 Rocket 4.4 21:46:36 10° NNE 21:50:24 29° ENE 21:54:11 10° SE
CZ-4B R/B 4.3 21:47:55 10° ESE 21:51:49 21° ENE 21:55:41 10° NNE
SL-08 R/B 3.6 21:49:05 10° N 21:53:48 72° WNW 21:58:25 10° SSW
Cosmos 1862 4.0 21:50:11 10° NNW 21:54:07 59° W 21:58:03 10° S
Cosmos 44 3.2 21:52:27 10° NNW 21:57:11 57° NE 22:01:35 10° SE
Cosmos 1939 Rocket 3.0 21:55:31 10° SSE 21:59:32 53° ENE 22:03:33 10° N
Cosmos 990 Rocket 4.2 21:58:47 10° N 22:03:47 46° ENE 22:08:44 10° SE
CZ-2C R/B 3.7 22:02:45 10° NE 22:06:49 23° E 22:10:49 10° SE
USA 267 3.8 22:02:54 10° NE 22:09:13 54° NNW 22:15:32 10° WSW
SJ 16-02 2.7 22:07:00 10° NNW 22:11:10 44° WSW 22:15:19 10° S
ATLAS CENTAUR R/B 3.4 22:02:54 10° SW 22:15:00 76° SE 22:19:28 12° NE
FengYun 1-2 T 4.3 22:10:07 10° SSE 22:15:43 89° WSW 22:21:19 10° NNW
Cosmos 1464 Rocket 4.4 22:09:40 10° SSW 22:16:00 70° W 22:22:24 10° N
ATLAS CENTAUR R/B 3.9 22:13:42 10° WNW 22:16:06 15° NW 22:18:36 10° N
Cosmos 1500 Rocket 3.5 22:15:40 10° N 22:20:06 66° E 22:24:28 10° SSE
CZ-4C R/B 3.8 22:15:26 10° NNW 22:21:19 27° NE 22:27:14 12° E
USA 229 DEB 4.0 22:15:35 10° NNW 22:22:49 58° NE 22:30:30 10° SE
USA 229 4.0 22:15:40 10° NNW 22:22:55 58° NE 22:30:34 10° SE
CZ-2C R/B 3.8 22:18:13 10° S 22:23:07 53° W 22:27:50 10° NNW
ISS -1.9 22:22:24 10° NW 22:24:55 19° N 22:26:23 15° NE
AQUARIUS 4.1 22:23:41 10° SSE 22:28:10 85° ENE 22:32:41 10° NNW
Cosmos 1812 4.0 22:25:22 10° SE 22:28:13 20° E 22:29:11 18° ENE
Nadezhda 4 Rocket 4.2 22:23:52 10° N 22:30:12 78° W 22:36:31 10° S
USA 276 2.3 22:27:37 10° NW 22:30:40 49° NNE 22:32:26 21° E
Cosmos 1805 Rocket 3.7 22:27:06 10° N 22:31:21 50° E 22:35:32 10° SSE
Cosmos 1782 3.1 22:30:33 10° SSE 22:34:20 42° E 22:38:07 10° NNE
GPS 2-04 Rocket1 4.3 22:31:19 10° SW 22:34:52 28° S 22:37:51 13° ESE
Landsat 5 4.5 22:33:33 18° NE 22:35:25 25° E 22:38:47 10° SSE
Meteor 1-25 Rocket 4.1 22:30:10 10° N 22:35:45 74° E 22:41:20 10° SSE
Sich 1 3.3 22:32:32 10° N 22:36:39 44° ENE 22:40:45 10° SSE
Cosmos 1656 4.0 22:32:01 10° NNW 22:37:33 72° WSW 22:43:07 10° SSE
Cosmos 2369 4.1 22:33:55 10° NNW 22:39:21 41° ENE 22:44:43 10° SE
COSMOS 2455 3.2 22:34:36 10° S 22:40:17 46° ESE 22:44:36 17° NE
Cosmos 2221 4.3 22:36:56 10° SW 22:40:46 32° WNW 22:44:39 10° N
Cosmos 1697 Rocket 2.6 22:35:39 10° NNW 22:41:14 63° ENE 22:46:47 10° SE
USA 234 3.5 22:35:14 10° SE 22:41:46 75° SW 22:48:19 10° NW
Cosmos 1602 3.6 22:38:57 10° N 22:42:47 67° E 22:46:37 10° SSE
Cosmos 1092 Rocket 4.0 22:36:40 10° N 22:43:03 79° E 22:49:23 10° S
Cosmos 1980 Rocket 2.7 22:38:57 10° N 22:44:09 35° ENE 22:49:18 10° ESE
NOSS 3-1 (A) 4.1 22:38:47 10° NW 22:46:26 82° NE 22:55:20 10° SE
Cosmos 1340 Rocket 3.8 22:43:19 10° NNW 22:47:16 50° W 22:51:12 10° S
MOS 1-B Rocket 4.0 22:41:38 10° NNE 22:47:29 71° ESE 22:54:07 10° S
Cosmos 540 Rocket 3.4 22:42:45 10° S 22:47:48 70° ESE 22:52:27 12° NNE
Cosmos 468 Rocket 4.3 22:44:24 10° SSW 22:49:30 68° WNW 22:54:42 10° NNE
Cosmos 1898 Rocket 3.4 22:44:35 10° NNW 22:49:53 85° ENE 22:55:05 10° SSE
SL-16 R/B 4.0 22:48:14 10° NNE 22:49:59 13° NNE 22:49:59 13° NNE
Cosmos 1428 Rocket 4.4 22:45:04 10° N 22:51:13 79° E 22:57:22 10° S
deb Chang Zheng 4 3.6 22:47:34 10° SSE 22:51:46 55° ENE 22:55:59 10° N
Cosmos 2082 Rocket 2.4 22:48:25 10° S 22:53:52 50° ESE 22:57:21 22° NE
Lacrosse 5 rocket 3.4 22:53:39 10° NNW 22:55:22 13° NNE 22:55:22 13° NNE
H-2A R/B 2.0 22:52:30 10° SSE 22:57:44 87° WSW 23:02:52 10° NNW
CZ-2D R/B 3.6 22:54:30 10° S 22:58:19 67° WSW 23:02:09 10° NNW
COSMO-SKYMED 1 2.4 22:57:28 13° NNE 23:01:23 72° ESE 23:05:42 10° S
Cosmos 1627 Rocket 4.5 22:56:14 10° N 23:02:26 87° W 23:08:33 10° S
Cosmos 2084 3.5 22:59:32 10° NW 23:03:53 80° SW 23:08:23 10° SSE
Cosmos 2278 4.2 22:59:12 10° N 23:04:30 37° ENE 23:06:08 31° E
Cosmos 1933 4.2 23:00:45 10° SSW 23:04:41 50° W 23:08:38 10° N
COSMOS 2406 3.3 23:00:20 10° SSW 23:06:05 80° WNW 23:10:59 15° NNE
Helios 1B 4.5 23:07:21 15° NNE 23:10:59 89° WSW 23:15:18 10° SSW
Cosmos 2279 Rocket 3.9 23:05:00 10° S 23:11:08 67° E 23:17:18 10° NNE
SL-24 R/B - RUBIN 2 3.8 23:07:47 10° NNW 23:12:08 44° NE 23:12:09 44° NE
Meteor 2-6 Rocket 4.4 23:08:05 10° SSE 23:13:38 49° E 23:16:21 28° NE
Okean O Rocket 1.5 23:10:18 10° SSE 23:14:44 82° ENE 23:19:13 10° NNW
Cosmos 1633 Rocket 3.0 23:12:21 10° N 23:16:39 54° E 23:20:56 10° SSE
Cosmos 2266 Rocket 4.4 23:11:58 10° N 23:17:51 38° ENE 23:23:45 10° SE
Meteor 2-16 Rocket 4.3 23:14:30 10° N 23:20:37 73° E 23:26:44 10° SSE
Cosmos 1833 Rocket 3.6 23:16:42 10° SW 23:22:05 47° WNW 23:26:59 13° NNE
ARGOS 3.1 23:18:49 10° SSE 23:24:15 85° WSW 23:29:42 10° NNW
Cosmos 1634 Rocket 4.5 23:18:10 10° SSW 23:24:24 63° W 23:30:42 10° N
Cosmos 1500 3.8 23:22:04 10° NNW 23:25:44 54° W 23:29:21 10° S
Cosmos 841 Rocket 3.8 23:26:00 10° SSW 23:31:07 63° WNW 23:34:19 23° N
SL-08 RB Rocket 3.6 23:26:47 10° SSE 23:31:26 83° ENE 23:36:04 10° N
Feng Yun 1-1 Rocket 4.2 23:25:50 10° SSE 23:31:45 74° ENE 23:37:38 10° N
CZ-4B R/B 3.7 23:26:34 10° S 23:31:56 59° WSW 23:37:15 10° NNW
Cosmos 1937 Rocket 4.2 23:28:55 10° NNW 23:34:07 54° WSW 23:39:16 10° S
Cosmos 1151 Rocket 3.3 23:33:03 10° SSW 23:37:19 67° W 23:38:49 39° N
Cosmos 1666 Rocket 3.8 23:35:27 10° NNW 23:39:53 68° W 23:44:15 10° S
Cosmos 1655 Rocket 4.0 23:33:55 10° N 23:40:16 59° E 23:46:31 10° SSE
Cosmos 1328 Rocket 3.7 23:41:41 10° SSW 23:45:51 74° WSW 23:45:51 74° WSW
CZ-2C R/B 3.6 23:42:22 10° N 23:47:18 45° WNW 23:52:11 10° SW
NOSS 2-2 (C) 4.5 23:46:33 10° NW 23:52:02 83° SW 23:55:54 30° SSE
GEOS 3 Rocket 3.5 23:53:43 76° SSE 23:54:09 86° SW 23:59:23 10° NW
DMSP B5D2-2 4.0 23:54:56 75° S 23:54:56 75° S 23:59:42 10° SSW
